Terug naar catalogus

STARLINK-35626

ActiefCommunicatieVLEO
NORAD 66233·PAYLOAD·🇺🇸 United States

Gelanceerd Oct 28, 2025 vanaf Vandenberg Space Force Base

Loading…

Volgende Passages (komende 24 uur)

TLE

VersSource: CelesTrak SupGP

Epoch: Sep 14, 2026, 23:12 UTC

1 66233C 25244AD  26257.96715278  .00035457  00000+0  10479-2 0  2577
2 66233  53.1587  69.4523 0001160  78.4803  34.2249 15.34361856    15

Volg STARLINK-35626 in realtime met AllMySat

Download on the App Store